Find Starlink 2594

NORAD ID: 48388 Int'l Des: 2021-038 Owner: SPXS Country: US Constellation: starlink operational
LEOCIRCULARSTARLINK_TYPE

Live Position

Loading 3D Globe...

About Starlink 2594

Description loading...

Upcoming Passes

Passes for default location (London). Set your location on the main map for personalized predictions.

Altitude History

Loading altitude history...

Two-Line Element Set

1 48388U 21038AM 26104.25002315 .00007576 00000-0 25561-3 0 9993
2 48388 53.1590 180.1199 0001325 87.4349 240.6225 15.31706317 5821
Epoch: Apr 14, 2026 • Age: 9 hours

Current Status

Altitude 488.4 km
Velocity 7.62 km/s
Sub-Earth Point -48.99°S, 11.33°W
Launch Date May 4, 2021
Age 4.9 years
Type internet

Technical Details

Classification Payload
Mass 260.00 kg
Dry Mass 248.00 kg
Total Mass 260.00 kg
Length 0.20 m
Diameter 2.80 m
Span 9.00 m
Shape Box + pan
Manufacturer SPXS
Bus Type Starlink
Phase Status In Orbit
Owner/State SPXS/US

Most Searched